Find Starlink 11357

NORAD ID: 61541 Int'l Des: 2024-184 Owner: SPXS Country: US Constellation: starlink operational
LEOCIRCULAR

实时位置

正在加载3D地球...

关于 Starlink 11357

正在加载描述...

即将过境

Passes for default location (London). Set your location on the main map for personalized predictions.

高度历史

Loading altitude history...

两行轨道根数

1 61541U 24184K 26126.50512009 .00001027 00000-0 13348-4 0 9998
2 61541 53.1591 311.5614 0001163 122.8370 237.2759 15.69682916 89496
Epoch: May 6, 2026 • Age: 5 hours

当前状态

高度 365.6 km
速度 7.70 km/s
星下点 53.17°N, 74.73°W
发射日期 Oct 15, 2024
运行时间 1.5 years
类型 internet

技术详情

分类 Payload
质量 960.00 kg
干质量 910.00 kg
总质量 960.00 kg
长度 0.30 m
直径 4.10 m
跨度 29.00 m
形状 Box + pan
制造商 SPXS
平台类型 Starlink V2MD
阶段状态 In Orbit
所有者/国家 SPXS/US

Most Searched